Lid_Strength_Index
7 9 10 9 8 8 9 10 11 9 8 8 8 7 6 5 5 5 5 4 4 4 3 2 2 2 2 1 2 2 1 1 1 1 2 2 2 1 1 0 0 0 0 0
9 10 8 7 8 9 9 10 11 9 8 8 8 9 7 6 5 5 5 5 4 4 3 3 2 2 2 2 2 2 2 1 1 1 1 1 1 1 1 0 0 0 0 0
10 9 7 8 9 10 9 10 10 11 9 8 9 10 8 6 5 5 4 4 4 4 4 3 3 2 2 2 2 2 2 1 1 1 1 1 1 1 1 1 1 1 0 0
9 8 9 9 10 9 11 8 9 9 10 13 9 14 9 7 7 6 5 5 4 4 3 3 3 3 2 1 1 1 1 1 1 1 1 2 2 3 2 2 1 1 0 0
10 9 9 9 9 7 9 7 8 8 10 11 11 12 11 8 8 7 6 5 4 4 3 3 3 2 2 1 1 1 1 2 1 1 1 2 2 2 1 1 2 1 1 0
8 5 6 7 6 6 6 8 8 9 10 14 12 11 12 10 8 7 5 5 4 4 3 3 2 2 2 2 2 1 2 2 1 1 1 2 2 2 2 2 2 2 1 1
8 8 6 6 9 7 8 10 15 15 15 15 10 12 10 8 7 6 6 5 4 4 3 3 3 3 3 2 2 2 2 2 2 2 2 2 2 2 2 2 2 2 2 2
12 13 8 7 8 9 10 13 17 19 17 14 10 13 11 7 6 5 5 4 4 4 3 3 3 3 2 2 2 2 2 2 2 2 2 2 1 2 2 2 2 2 2 1
11 11 7 7 6 7 9 11 10 14 12 16 12 10 8 6 6 6 5 5 4 4 3 3 2 2 2 2 2 2 2 2 2 2 2 2 2 2 2 1 1 1 1 1
8 12 8 7 6 7 9 7 13 14 20 18 14 13 12 9 8 6 6 5 5 4 4 3 3 3 2 2 2 2 2 2 2 2 2 2 2 1 1 1 2 1 1 1
7 9 10 8 9 10 9 11 11 12 14 17 17 13 8 10 9 9 7 5 5 4 4 4 3 3 2 2 2 2 2 2 2 2 2 2 2 1 1 1 1 1 1 1
7 10 13 11 7 6 7 9 11 13 15 13 13 14 8 8 8 8 9 6 5 4 5 4 4 4 3 3 3 3 2 3 2 2 2 2 2 2 2 2 1 1 1 1
9 12 16 13 9 9 11 10 9 10 12 15 17 14 7 8 9 8 9 6 5 4 5 5 4 4 4 3 3 3 3 3 2 2 2 2 2 2 2 2 1 1 1 1
8 12 14 16 12 12 14 12 10 11 15 14 14 12 10 10 10 9 8 7 5 4 5 5 5 5 4 3 4 3 3 2 2 2 2 2 2 2 2 1 1 1 1 1
10 14 11 10 10 9 11 12 10 11 10 13 11 11 9 9 10 9 8 6 5 5 5 5 5 5 4 4 4 3 3 3 2 2 2 2 2 1 1 1 1 1 1 1
9 14 11 12 9 9 10 9 9 9 9 10 10 10 7 7 7 7 6 5 6 5 4 5 5 5 5 4 4 3 3 3 2 2 2 2 2 2 2 1 1 1 1 1
11 12 13 15 10 12 14 10 10 9 8 9 11 9 6 6 6 6 5 6 5 5 5 5 4 4 4 4 3 3 3 2 2 2 2 2 2 2 2 1 2 2 2 1
11 12 12 15 13 18 10 7 8 10 9 8 8 8 7 6 5 5 5 5 5 5 4 4 4 4 3 3 3 2 2 2 2 2 2 2 2 2 2 2 2 2 1 2
8 12 15 16 16 13 11 10 11 12 12 8 9 8 6 5 5 5 4 3 3 3 4 4 4 4 3 3 2 2 2 2 2 2 2 2 2 2 2 2 2 2 2 2
9 10 14 15 18 20 13 10 8 8 15 8 8 8 8 7 9 7 5 4 3 3 4 4 3 3 3 3 2 2 2 2 2 2 2 2 2 2 2 2 2 1 1 1
14 13 16 16 17 14 10 8 8 16 13 8 7 7 7 9 8 5 4 4 3 3 4 3 3 4 3 3 2 3 2 3 2 2 1 1 2 2 2 2 1 1 1 2
14 15 15 15 17 18 8 9 13 9 8 7 7 7 7 6 5 5 4 4 4 4 4 4 4 4 3 2 2 3 3 2 1 1 2 2 1 1 1 2 2 1 1 2
14 13 14 14 14 8 7 8 7 7 9 9 8 6 6 6 6 5 5 4 4 4 4 4 4 3 3 2 2 3 2 2 2 2 2 2 1 2 1 2 2 2 2 2
9 8 12 12 9 8 7 6 6 7 7 6 5 5 5 6 5 5 5 5 5 4 4 4 3 4 3 2 2 2 2 1 2 2 2 2 2 2 2 2 1 2 2 3
9 9 10 11 8 8 7 7 7 7 6 5 5 5 5 5 5 5 5 5 5 4 4 4 4 4 3 2 2 2 2 1 2 2 2 2 2 2 2 4 5 2 6 5
7 9 11 12 8 8 9 6 6 7 7 6 6 6 5 5 5 5 5 5 5 5 4 4 4 3 2 2 2 2 1 2 2 2 3 2 2 2 2 2 3 12 12 13